www.pogodaiklimat.ru
Время
и дата
16:51 17.08
17:51 17.08
18:51 17.08
19:51 17.08
20:51 17.08
21:51 17.08
22:51 17.08
23:51 17.08
00:51 18.08
01:51 18.08
02:51 18.08
03:51 18.08
04:51 18.08
05:51 18.08
06:51 18.08
07:51 18.08
08:51 18.08
09:51 18.08
10:51 18.08
11:51 18.08
12:51 18.08
13:51 18.08
14:51 18.08
15:35 18.08
15:51 18.08
16:51 18.08
17:51 18.08
18:51 18.08
19:51 18.08
20:51 18.08
21:51 18.08
22:51 18.08
23:51 18.08
00:51 19.08
01:51 19.08
02:51 19.08
03:51 19.08
04:51 19.08
05:51 19.08
06:51 19.08
07:51 19.08
08:51 19.08
09:51 19.08
10:51 19.08
11:51 19.08
12:51 19.08
13:51 19.08
14:51 19.08
Ветер
(напр.,м/с)
Видим. Явления Облачность Т
(С)
Тd
(С)
f
(%)
Тe
(С)
Тes
(С)
Комфортность P
(гПа)
Po
(гПа)
Тmin
(С)
Tmax
(С)
R
(мм)
R24
(мм)
S
(см)
штиль 0 16 км ясно +26.1 +11.1 39 +27 +35 жарко 1014.3 1000.2
штиль 0 16 км 5/0 3600 м
[Ac]
+25.6 +10.6 39 +27 +29 жарко 1014.0 999.9
С 1 16 км ясно +22.8 +12.2 51 +25 +26 комфорт 1014.3 1000.2 +22.8 +27.2
СЗ 1 16 км ясно +21.7 +11.7 53 +24 +24 комфорт 1014.5 1000.5
СВ 1 16 км ясно +20.0 +12.2 61 +22 +22 комфорт 1014.8 1000.9
З 1 16 км 8/0 3300 м
[Ac]
+18.3 +12.2 68 +19 +19 1014.4 1000.2
СВ 1 16 км 10/0 3000 м
[Ac]
+18.9 +12.2 65 +20 +20 1014.2 1000.2
С 1 16 км 2/0 3300 м
[Ac]
+17.8 +11.1 65 +18 +18 1013.7 999.9
штиль 0 16 км ясно +15.0 +11.1 77 +15 +15 1013.8 999.5 +15.0 +23.3
штиль 0 16 км ясно +16.1 +12.2 78 +16 +16 1013.6 999.5
штиль 0 16 км ясно +14.4 +11.7 84 +14 +14 1013.9 999.9
штиль 0 16 км ясно +15.0 +11.7 81 +15 +15 1014.0 999.9
З 1 16 км ясно +13.3 +11.1 87 +13 +13 1014.2 999.9
ЮЗ 1 16 км ясно +13.9 +11.7 87 +13 +13 1014.6 1000.5
З 1 16 км ясно +17.8 +12.8 73 +18 +18 1014.7 1000.5 +12.8 +17.8
нст 1 16 км ясно +20.6 +12.8 61 +24 +26 комфорт 1014.5 1000.5
С 1 16 км ясно +22.8 +12.8 53 +26 +30 жарко 1014.1 1000.2
нст 1 16 км ясно +25.6 +12.8 45 +27 +37 жарко 1013.8 999.9
СЗ 2 16 км ясно +26.7 +11.1 38 +28 +37 жарко 1013.4 999.5
ЮЗ 2 16 км ясно +28.3 +11.1 34 +29 +40 жарко 1013.2 999.2
ЮЗ 2
{4}
16 км 2/0 2250 м
[Ac]
+29.4 +9.4 29 +29 +37 жарко 1012.7 998.9 +17.8 +30.0
З 2 16 км 2/0 2250 м
[Ac]
+30.0 +9.4 28 +30 +37 жарко 1012.1 998.2
ЮЗ 1 16 км 2/0 2400 м
[Ac]
+30.0 +8.9 27 +29 +39 жарко 1012.0 998.2
СЗ 4 16 км 10/0 2700 м
[Ac]
+27.8 +11.7 37 +29 +29 жарко 998.5
С 3
{4}
16 км 5/0 2700 м
[Ac]
+27.2 +11.7 38 +28 +30 жарко 1012.8 998.5
СЗ 1 16 км 8/0 3300 м
[Ac]
+25.6 +11.7 42 +27 +29 жарко 1013.1 998.9
СЗ 1 16 км 2/0 3300 м
[Ac]
+26.7 +11.1 38 +28 +30 жарко 1013.3 999.2
СЗ 1 16 км ясно +23.9 +11.7 46 +25 +26 комфорт 1013.7 999.5 +23.9 +30.6
штиль 0 16 км ясно +20.6 +12.2 59 +22 +22 комфорт 1014.1 999.9
З 1 16 км ясно +21.7 +12.8 57 +24 +24 комфорт 1014.6 1000.5
З 1 16 км ясно +21.7 +12.8 57 +24 +24 комфорт 1015.1 1000.9
С 1 16 км ясно +18.9 +12.8 68 +20 +20 1015.5 1001.5
СЗ 1 16 км ясно +17.8 +12.8 73 +18 +18 1015.6 1001.5
штиль 0 16 км ясно +17.2 +13.3 78 +17 +17 1015.9 1001.9 +16.7 +23.9
штиль 0 16 км ясно +16.1 +12.8 81 +16 +16 1016.2 1002.2
штиль 0 16 км ясно +15.6 +12.8 83 +15 +15 1016.5 1002.5
штиль 0 16 км ясно +14.4 +12.2 87 +14 +14 1016.9 1002.5
С 1 16 км ясно +13.9 +11.7 87 +13 +13 1017.3 1003.2
штиль 0 16 км ясно +15.0 +12.8 87 +15 +15 1017.7 1003.5
штиль 0 16 км ясно +17.8 +13.9 78 +18 +18 1018.3 1004.2 +13.9 +18.3
СЗ 1 16 км ясно +21.7 +13.9 61 +25 +27 комфорт 1018.7 1004.5
штиль 0 16 км ясно +23.9 +13.3 51 +26 +34 жарко 1018.7 1004.5
нст 1 16 км ясно +27.2 +13.9 44 +29 +39 жарко 1018.8 1004.5
нст 1 16 км ясно +29.4 +13.3 37 +31 +44 жарко 1018.3 1004.2
В 1 16 км 5/0 2100 м
[Ac]
+29.4 +12.8 36 +31 +41 жарко 1018.0 1003.9
ЮЗ 1 16 км ясно +30.6 +12.2 32 +31 +49 жарко 1017.6 1003.5 +17.8 +31.1
З 2 16 км 5/0 2250 м
[Ac]
+30.6 +11.7 31 +31 +37 жарко 1017.3 1003.2
нст 1
{4}
16 км 8/0 3300 м
[Ac]
+31.7 +12.2 30 +32 +38 жарко 1017.1 1003.2
Местоположение метеостанции Lehigh Valley International Airport: широта 40.6508 долгота -75.4492 высота над уровнем моря 119 м.
В архиве по умолчанию представлена погода в Аллентауне за последние 1-2 суток. Обновление информации о фактической погоде в базе происходит ежечасно! Архивные данные за месяц целиком и за предыдущие месяцы Вы можете получить, выбрав интересующий диапазон дат из раскрывающегося списка и нажав кнопку "Ввод!".
Внимание! Архив погоды МЕТАР в базе сайта по станциям, не включенным в климатический монитор, хранится не более 60 дней. Нет смысла пытаться выбрать более раннюю дату.
*Определитесь, кто Вы:
Внимание! Время в таблицах - местное (без учета летнего времени). Для получения всемирного времени необходимо вычесть поправку, которая равна -5 ч.
Смотрите также архив погоды в соседних городах и на ближайших метеорологических станциях:
Партнеры нашего сайта:      
Пояснения к столбцам:
  • Ветер - указаны скорость ветра в м/с - средняя за 10 мин, порывы в срок и между сроками (в фигурных скобках) и направление, откуда дует ветер: С - северный,
  • СВ - северо-восточный, В - восточный, ЮВ - юго-восточный, Ю - южный, ЮЗ - юго-западный, З - западный, СЗ - северо-западный.
  • Видимость - горизонтальная дальность видимости в метрах или километрах. При видимости от 1 до 10 км при отсутствии осадков обычно наблюдается дымка, при ухудшении видимости до 1 км и менее - туман. В сухую погоду видимость может ухудшаться дымом, пылью или мглою.
  • Явления - указаны атмосферные явления, наблюдавшиеся в срок или в последний час перед сроком; фигурными скобками обозначены явления, наблюдавшиеся между сроками (за 1-3 часа до срока); квадратными скобками обозначены град или гололедные отложения с указанием их диаметра в мм.
  • Облачность - указаны через наклонную черту общая и нижняя облачность в баллах и высота нижней границы облаков в метрах; квадратными скобками обозначены формы облаков: Ci - перистые, Cs - перисто-слоистые, Cc - перисто-кучевые, Ac - высококучевые, As - высокослоистые, Sc - слоисто-кучевые, Ns - слоисто-дождевые, Cu - кучевые, Cb - кучево-дождевые. Подробнее классификацию облаков см. в Атласе облаков (PDF).
  • T - Температура воздуха - температура, измеренная на высоте 2 м над землей.
  • Td - Температура точки росы - температура, при понижении до которой содержащийся в воздухе водяной пар достигнет насыщения.
  • f - Относительная влажность воздуха - влажноcть воздуха, измеренная на высоте 2 м над землей.
  • Te - Эффективная температура - температура, которую ощущает одетый по сезону человек в тени. Характеристика душности погоды. При расчете учитывается влияние влажности воздуха и скорости ветра на теплоощущения человека.
  • Tes - Эффективная температура на солнце - температура, которую ощущает человек, с поправкой на солнечный нагрев. Характеристика знойности погоды. Зависит от высоты солнца над горизонтом, облачности и скорости ветра. Ночью, в пасмурную погоду, а также при ветре 12 м/с и более поправка равна нулю.
  • P - Атмосферное давление - приведенное к уровню моря атмосферное давление.
  • Po - Атмосферное давление - измеренное на уровне метеостанции атмосферное давление.
  • Tmin - Минимальная температура - минимум температуры воздуха на высоте 2 м над землей.
  • Tmax - Максимальная температура - максимум температуры воздуха на высоте 2 м над землей.
  • R - Количество осадков - Количество выпавших осадков за период времени, мм. При наведении курсора мыши на число - период времени, за который выпало указанное количество осадков.
  • R24 - Количество осадков - Количество выпавших осадков за 24 часа, мм.
  • S - Снежный покров - Высота снежного покрова, см. При наведении курсора мыши на число - состояние снежного покрова и степень покрытия местности в баллах.